[[{"header":{"parameterUnit":"m.s-1","parameterCategory":2,"la1":30.2991,"la2":30.254,"lo1":-89.0895,"lo2":-89.0444,"dy":0.0017,"dx":0.0017,"nx":28,"ny":28,"refTime":"2025-03-06T09:00:00:Z","depth":"0","parameterNumber":2,"parameterNumberName":"U-component_of_CURRENTS"},"data":[0,0,0,0,0,0,0,0,0,0,0,0,0,0,0,0,0,0,0,0,0,0,0,0,0,0,0,0,0,0,0,0,0,0,0,0,0,0,0,0,0,0,0,0,0,0,0,0,0,0,0,0,0,0,0,0,0,0,0.3244,0.3244,0,0.3292,0.3292,0.3293,0.3295,0.3295,0.3294,0.3294,0.3353,0.3355,0.3357,0,0,0,0,0,0,0,0,0,0,0,0,0,0.3183,0.3184,0.3243,0.3244,0.3245,0.3292,0.3292,0.3293,0.3295,0.3295,0.3294,0.3294,0.3353,0.3355,0.3357,0,0,0,0,0,0,0,0,0,0,0,0,0,0.3216,0.3184,0.3243,0.3253,0.3255,0.3292,0.3292,0.3293,0.3295,0.3295,0.3294,0.3293,0.3352,0.3355,0.3358,0.3388,0,0,0.3367,0.3368,0,0,0,0,0,0,0,0,0.3214,0.3218,0.3251,0.3252,0.3254,0.3288,0.3293,0.3326,0.3295,0.3278,0.3294,0.3293,0.3334,0.3339,0.3346,0.3391,0.3393,0.3367,0.3369,0.337,0.3371,0,0,0,0,0,0,0,0.3212,0.3216,0.3261,0.3252,0.3254,0.3265,0.3269,0.3299,0.3308,0.3279,0.328,0.3288,0.3335,0.3343,0.3348,0.3394,0.3367,0.3369,0.3371,0.3372,0.3495,0.3496,0,0,0,0,0,0,0.3209,0.3214,0.3259,0.3263,0.3234,0.3267,0.3271,0.3277,0.3307,0.3312,0.3289,0.3288,0.3339,0.3344,0.335,0.3428,0.337,0.3373,0.3374,0.3493,0.3495,0.3497,0,0,0,0,0,0,0.3207,0.3212,0.3257,0.3241,0.3248,0.3269,0.3275,0.3278,0.329,0.3315,0.3319,0.3298,0.3338,0.3346,0.3382,0.3429,0.3374,0.3377,0.3491,0.3494,0.3496,0.3559,0,0,0,0,0,0,0.3205,0.3211,0.3216,0.3241,0.3249,0.3288,0.3276,0.3279,0.3297,0.3296,0.3324,0.3329,0.3338,0.3377,0.3385,0.3432,0.3379,0.349,0.3493,0.3495,0.3555,0.3564,0.3571,0,0,0,0,0,0.3203,0.3217,0.3216,0.3222,0.3254,0.3289,0.3294,0.3306,0.3298,0.3312,0.3326,0.3328,0.34,0.3381,0.3389,0.3439,0.3488,0.3492,0.3495,0.3552,0.3562,0.357,0,0,0,0,0,0,0.3198,0.3219,0.3219,0.3239,0.3264,0.329,0.3306,0.331,0.3332,0.3331,0.3344,0.3351,0.3404,0.3407,0.3385,0.3481,0.3447,0.3452,0.3487,0.3497,0.3504,0.3513,0.3381,0,0,0,0,0,0.3198,0.321,0.3235,0.3252,0.3265,0.3284,0.3299,0.3309,0.3331,0.3339,0.3355,0.3381,0.3425,0.3446,0.3475,0.3525,0.3564,0.3563,0.357,0.3577,0.3589,0.3706,0.3726,0.3508,0.3508,0.3508,0,0,0.32,0.3215,0.3221,0.3252,0.3269,0.3303,0.3291,0.3321,0.3355,0.3345,0.3388,0.3407,0.3443,0.3501,0.3526,0.351,0.3656,0.3581,0.3586,0.3595,0.3712,0.3733,0.3752,0.351,0.3509,0.3509,0,0,0.3218,0.3225,0.3243,0.3267,0.3299,0.3318,0.3328,0.3355,0.3374,0.3419,0.3428,0.3471,0.3519,0.3563,0.3591,0.3658,0.3691,0.3665,0.3717,0.3831,0.385,0.3868,0.3934,0.3957,0.3671,0.3671,0.3671,0,0.3222,0.3247,0.3256,0.3287,0.3315,0.3327,0.3365,0.3394,0.3429,0.3467,0.344,0.3553,0.3558,0.3673,0.3678,0.368,0.3733,0.3681,0.3844,0.3862,0.3879,0.3942,0.3967,0.3675,0.3674,0.3674,0.3674,0,0.3255,0.328,0.3297,0.3337,0.3371,0.3405,0.3447,0.3484,0.3503,0.3537,0.3636,0.3657,0.3736,0.3738,0.372,0.3851,0.3845,0.3841,0.3824,0.3905,0.3966,0.3991,0.368,0.3678,0.3677,0.3677,0,0,0.3251,0.3308,0.3313,0.3346,0.3401,0.3436,0.3507,0.3586,0.3656,0.3691,0.3795,0.3845,0.3866,0.3899,0.3906,0.397,0.4103,0.3947,0.3951,0.4017,0.4339,0.4246,0.4263,0.4141,0.4146,0.415,0.4328,0,0.3275,0.3332,0.3363,0.3435,0.347,0.3522,0.3595,0.3671,0.3734,0.3832,0.3892,0.3984,0.3933,0.398,0.4046,0.4096,0.4174,0.4053,0.4244,0.4249,0.4164,0.4291,0.4059,0.4192,0.4352,0.4356,0.4359,0,0.3292,0.3333,0.3394,0.3493,0.3518,0.357,0.3703,0.3773,0.3913,0.3967,0.4082,0.4134,0.425,0.4182,0.4357,0.4289,0.4321,0.434,0.4349,0.4259,0.4204,0.4139,0.4231,0.4104,0.4397,0.4394,0.4391,0,0.3272,0.336,0.3409,0.3437,0.3547,0.3606,0.3678,0.3812,0.3901,0.4067,0.4158,0.4306,0.439,0.4485,0.4517,0.4467,0.4685,0.4635,0.4591,0.4583,0.442,0.4389,0.4415,0.4777,0.4776,0.4776,0.4775,0,0.3278,0.3322,0.3404,0.3432,0.353,0.3607,0.3734,0.3832,0.3988,0.4116,0.4232,0.4364,0.447,0.4596,0.4612,0.4686,0.4791,0.4633,0.4646,0.443,0.4399,0.4306,0.4252,0.4782,0.4781,0.4779,0.4778,0,0.3249,0.329,0.3361,0.3475,0.3516,0.3589,0.3752,0.3857,0.3999,0.4177,0.4243,0.4444,0.4614,0.4707,0.4851,0.4803,0.4738,0.4872,0.458,0.4554,0.4348,0.4306,0.4243,0.4124,0.4866,0.4865,0.4864,0,0.324,0.3265,0.3377,0.343,0.3483,0.3596,0.3689,0.3843,0.3959,0.4223,0.4318,0.4534,0.4669,0.4848,0.4806,0.4863,0.4739,0.4669,0.452,0.4337,0.4303,0.4152,0.4045,0.4329,0.4324,0.4319,0.4316,0,0.325,0.3279,0.3346,0.3434,0.3526,0.3625,0.3763,0.3842,0.4041,0.4189,0.4383,0.4508,0.4657,0.4603,0.4658,0.465,0.4417,0.4583,0.4494,0.3976,0.3717,0.3606,0.4188,0.4279,0.4283,0.4286,0.4288,0.4289,0.3273,0.3311,0.3389,0.3468,0.3558,0.3639,0.3687,0.383,0.3974,0.413,0.4305,0.4374,0.4405,0.4435,0.4405,0.415,0.4179,0.3989,0.3985,0.3874,0.365,0.4128,0.4167,0.417,0.4172,0.4174,0.4176,0,0.3316,0.3355,0.3426,0.351,0.3562,0.3619,0.3732,0.3736,0.3835,0.3962,0.4069,0.4025,0.3968,0.3943,0.3737,0.3561,0.3393,0.3468,0.3199,0.315,0.3668,0.3532,0.3311,0.3311,0.3311,0.3311,0.3311,0.3311,0.3356,0.3411,0.3423,0.3489,0.3532,0.3545,0.3569,0.3561,0.3593,0.354,0.3463,0.3492,0.3547,0.3484,0.3244,0.3152,0.2916,0.2756,0.2819,0.3169,0.3216,0.326,0.312,0.2816,0.2815,0.212,0.2115,0.2111]},{"header":{"parameterUnit":"m.s-1","parameterCategory":2,"la1":30.2991,"la2":30.254,"lo1":-89.0895,"lo2":-89.0444,"dy":0.0017,"dx":0.0017,"nx":28,"ny":28,"refTime":"2025-03-06T09:00:00:Z","depth":"0","parameterNumber":3,"parameterNumberName":"V-component_of_CURRENTS"},"data":[0,0,0,0,0,0,0,0,0,0,0,0,0,0,0,0,0,0,0,0,0,0,0,0,0,0,0,0,0,0,0,0,0,0,0,0,0,0,0,0,0,0,0,0,0,0,0,0,0,0,0,0,0,0,0,0,0,0,0.0202,0.0202,0,0.0158,0.0157,0.0157,0.0116,0.0116,0.0115,0.0115,0.0051,0.005,0.0048,0,0,0,0,0,0,0,0,0,0,0,0,0,0.0209,0.0209,0.0202,0.0202,0.0202,0.0158,0.0157,0.0157,0.0116,0.0116,0.0115,0.0115,0.0052,0.005,0.0048,0,0,0,0,0,0,0,0,0,0,0,0,0,0.0189,0.0209,0.0202,0.0177,0.0174,0.0158,0.0157,0.0157,0.0116,0.0116,0.0115,0.0114,0.0052,0.005,0.0048,0.0047,0,0,0.0042,0.0041,0,0,0,0,0,0,0,0,0.019,0.0188,0.0181,0.0179,0.0176,0.0143,0.0136,0.0119,0.0116,0.0137,0.0115,0.0114,0.0081,0.0077,0.0068,0.0044,0.0042,0.0042,0.0041,0.004,0.0039,0,0,0,0,0,0,0,0.0191,0.019,0.0184,0.0181,0.0177,0.0153,0.015,0.0133,0.0112,0.0135,0.0132,0.013,0.0079,0.007,0.0066,0.0041,0.0042,0.004,0.0039,0.0038,0.0017,0.0018,0,0,0,0,0,0,0.0202,0.0191,0.0185,0.0182,0.0183,0.0154,0.015,0.0153,0.0112,0.0106,0.013,0.0128,0.0074,0.0069,0.0064,0.0078,0.004,0.0038,0.0037,0.0016,0.0017,0.0018,0,0,0,0,0,0,0.0203,0.0203,0.0187,0.0186,0.0183,0.0155,0.0158,0.0153,0.0145,0.0109,0.0102,0.0129,0.0073,0.0067,0.0053,0.0075,0.0037,0.0035,0.0016,0.0017,0.0017,0.0096,0,0,0,0,0,0,0.0203,0.0203,0.0208,0.0187,0.0183,0.0189,0.0159,0.0152,0.0145,0.0142,0.0106,0.0099,0.0072,0.0057,0.0051,0.0071,0.0034,0.0015,0.0016,0.0017,0.0092,0.0099,0.0105,0,0,0,0,0,0.0204,0.022,0.0208,0.0207,0.0191,0.019,0.0186,0.0162,0.0146,0.0151,0.0123,0.01,0.006,0.0055,0.0049,0.0069,0.0014,0.0016,0.0017,0.0089,0.0098,0.0105,0,0,0,0,0,0,0.0225,0.0217,0.0203,0.0216,0.0206,0.0183,0.0185,0.0169,0.015,0.0144,0.0107,0.0099,0.0093,0.007,0.0065,0.0066,0.0034,0.0035,0.0092,0.0099,0.0106,0.0132,0.0032,0,0,0,0,0,0.0232,0.0241,0.0227,0.0236,0.0234,0.0209,0.0204,0.019,0.0172,0.0163,0.0138,0.0112,0.0095,0.0088,0.0066,0.0069,0.0063,0.0077,0.0084,0.009,0.0106,0.0123,0.0133,0.0023,0.0023,0.0022,0,0,0.0242,0.0239,0.0242,0.024,0.0228,0.024,0.0205,0.0205,0.0219,0.0159,0.0166,0.0131,0.0098,0.0099,0.0095,0.0083,0.0115,0.0091,0.0097,0.0111,0.0125,0.0136,0.0146,0.0024,0.0023,0.0023,0,0,0.0275,0.0264,0.0285,0.0284,0.0277,0.0263,0.0268,0.025,0.0247,0.0246,0.0207,0.0191,0.0162,0.015,0.0138,0.0169,0.0145,0.0155,0.0216,0.0232,0.0241,0.025,0.0249,0.0257,0.0164,0.0164,0.0164,0,0.0285,0.0313,0.029,0.0313,0.0322,0.028,0.031,0.0301,0.0282,0.0293,0.0259,0.0235,0.0193,0.0214,0.021,0.0187,0.0183,0.019,0.0242,0.0251,0.0258,0.0256,0.0263,0.0168,0.0167,0.0167,0.0167,0,0.0338,0.0358,0.0372,0.0387,0.0391,0.041,0.0398,0.0403,0.0384,0.0375,0.0387,0.0336,0.0331,0.0305,0.0259,0.0294,0.0269,0.0246,0.0228,0.0275,0.0268,0.0275,0.0174,0.0172,0.0171,0.017,0,0,0.0371,0.0405,0.041,0.0442,0.0437,0.0455,0.0476,0.0496,0.0536,0.0498,0.0555,0.0491,0.0466,0.0451,0.0402,0.0396,0.042,0.0341,0.034,0.0351,0.0448,0.0402,0.0404,0.0407,0.0409,0.041,0.042,0,0.0421,0.0492,0.0488,0.0552,0.059,0.057,0.0606,0.0615,0.0613,0.0653,0.0609,0.0632,0.0525,0.0534,0.0509,0.0453,0.0442,0.0419,0.0393,0.0392,0.0355,0.0412,0.0398,0.0403,0.0426,0.0427,0.0428,0,0.0476,0.0522,0.0598,0.0665,0.068,0.071,0.0772,0.08,0.0826,0.083,0.0833,0.0801,0.0791,0.0697,0.0636,0.0627,0.0542,0.0483,0.0483,0.0421,0.036,0.0361,0.0414,0.0249,0.0438,0.0437,0.0437,0,0.053,0.0601,0.0671,0.069,0.075,0.0792,0.0825,0.0858,0.0914,0.0958,0.1011,0.0974,0.0985,0.0892,0.0746,0.0704,0.0678,0.0613,0.0492,0.0487,0.0462,0.0452,0.0364,0.0575,0.0575,0.0575,0.0575,0,0.0594,0.0651,0.071,0.0752,0.0859,0.087,0.098,0.1007,0.1076,0.1178,0.1118,0.1203,0.1033,0.0988,0.0833,0.0697,0.0752,0.0523,0.0499,0.0485,0.0477,0.032,0.0215,0.0575,0.0575,0.0575,0.0575,0,0.0646,0.0675,0.077,0.0854,0.0887,0.0968,0.1084,0.1168,0.1218,0.1358,0.1389,0.1384,0.1339,0.1158,0.1013,0.0823,0.0591,0.0621,0.0603,0.0576,0.0285,0.0185,0.0075,0.0004,0.05,0.0499,0.0498,0,0.0682,0.0735,0.0847,0.0916,0.0961,0.1076,0.1163,0.1234,0.1333,0.1492,0.1579,0.1577,0.162,0.138,0.1049,0.0791,0.0604,0.0564,0.0468,0.0286,0.0159,0.0087,0.003,0.0461,0.046,0.0459,0.0458,0,0.0761,0.0793,0.0873,0.1007,0.1111,0.1236,0.1369,0.1469,0.1585,0.1735,0.1914,0.1974,0.1739,0.147,0.1066,0.0867,0.0437,0.0536,0.0371,0.0144,0.0042,-0.0042,0.042,0.0451,0.0452,0.0452,0.0453,0.0453,0.0817,0.0886,0.0981,0.111,0.1231,0.1382,0.1511,0.1678,0.1881,0.2134,0.2158,0.2295,0.1835,0.13,0.1,0.0383,0.0389,0.0184,0.0087,0.0039,-0.0059,0.0375,0.036,0.036,0.036,0.036,0.036,0,0.0883,0.0956,0.1079,0.1231,0.1367,0.142,0.1638,0.1796,0.2073,0.2311,0.2495,0.2319,0.1807,0.1235,0.0387,-0.0007,-0.0139,-0.0209,-0.0313,-0.0343,0.007,0.0038,-0.0073,-0.0073,-0.0073,-0.0073,-0.0073,-0.0072,0.0922,0.1033,0.1089,0.1308,0.1424,0.1625,0.1762,0.2028,0.2236,0.2528,0.2601,0.2617,0.2096,0.0698,-0.0206,-0.0391,-0.065,-0.0722,-0.0826,-0.0562,-0.0533,-0.0505,-0.0558,-0.0793,-0.0794,-0.1189,-0.1193,-0.1197]}],[{"header":{"parameterUnit":"m.s-1","parameterCategory":2,"la1":30.2991,"la2":30.254,"lo1":-89.0895,"lo2":-89.0444,"dy":0.0017,"dx":0.0017,"nx":28,"ny":28,"refTime":"2025-03-06T09:00:00:Z","depth":"2","parameterNumber":2,"parameterNumberName":"U-component_of_CURRENTS"},"data":[0,0,0,0,0,0,0,0,0,0,0,0,0,0,0,0,0,0,0,0,0,0,0,0,0,0,0,0,0,0,0,0,0,0,0,0,0,0,0,0,0,0,0,0,0,0,0,0,0,0,0,0,0,0,0,0,0,0,0.259,0.259,0,0.2617,0.2617,0.2617,0.2623,0.2623,0.2622,0.2622,0.2651,0.2652,0.2652,0,0,0,0,0,0,0,0,0,0,0,0,0,0.255,0.2551,0.2589,0.259,0.2591,0.2617,0.2617,0.2617,0.2623,0.2623,0.2622,0.2622,0.2651,0.2652,0.2653,0,0,0,0,0,0,0,0,0,0,0,0,0,0.2569,0.2551,0.2589,0.2598,0.2599,0.2617,0.2617,0.2617,0.2623,0.2623,0.2622,0.2622,0.265,0.2652,0.2653,0.2661,0,0,0.2656,0.2657,0,0,0,0,0,0,0,0,0.2568,0.2571,0.2596,0.2597,0.2599,0.2618,0.2614,0.2633,0.2623,0.2611,0.2622,0.2622,0.2641,0.2643,0.2646,0.2662,0.2664,0.2656,0.2657,0.2658,0.2658,0,0,0,0,0,0,0,0.2567,0.257,0.2598,0.2597,0.2598,0.2603,0.2606,0.2617,0.2625,0.2612,0.2613,0.262,0.2642,0.2645,0.2646,0.2664,0.2656,0.2657,0.2658,0.2659,0.2746,0.2748,0,0,0,0,0,0,0.2567,0.2568,0.2598,0.2599,0.2585,0.2604,0.2607,0.261,0.2625,0.2627,0.262,0.262,0.2643,0.2645,0.2648,0.2712,0.2658,0.2659,0.2659,0.2745,0.2746,0.2748,0,0,0,0,0,0,0.2566,0.257,0.2596,0.2586,0.259,0.2605,0.2609,0.2611,0.2627,0.2631,0.2633,0.2635,0.2643,0.2646,0.2676,0.2711,0.2659,0.266,0.2743,0.2745,0.2747,0.2806,0,0,0,0,0,0,0.2565,0.2569,0.2576,0.2586,0.2591,0.2619,0.2609,0.2612,0.2631,0.2631,0.2644,0.2646,0.2643,0.2674,0.2677,0.2711,0.2661,0.2741,0.2744,0.2747,0.2802,0.281,0.2817,0,0,0,0,0,0.2563,0.2573,0.2576,0.258,0.2598,0.262,0.2623,0.2632,0.2632,0.2644,0.2656,0.2646,0.2696,0.2676,0.2679,0.2715,0.2739,0.2743,0.2746,0.2798,0.2808,0.2817,0,0,0,0,0,0,0.2561,0.2575,0.2578,0.2592,0.2611,0.2622,0.2636,0.2642,0.266,0.2664,0.2663,0.2667,0.2708,0.2703,0.2682,0.275,0.2717,0.2722,0.2756,0.2765,0.2773,0.2783,0.2662,0,0,0,0,0,0.2563,0.2573,0.259,0.2603,0.2614,0.2627,0.2639,0.2647,0.2663,0.2671,0.268,0.2696,0.2723,0.2737,0.2753,0.2787,0.281,0.2813,0.2821,0.2827,0.2839,0.2911,0.2927,0.276,0.276,0.276,0,0,0.2565,0.2576,0.2581,0.2603,0.2617,0.2641,0.2634,0.2659,0.2683,0.2672,0.2708,0.2722,0.2738,0.278,0.2798,0.2781,0.2887,0.2832,0.2837,0.2845,0.2917,0.2933,0.2947,0.2763,0.2762,0.2762,0,0,0.2576,0.2586,0.2599,0.2618,0.2646,0.2658,0.267,0.2691,0.2707,0.2745,0.2748,0.2787,0.2815,0.284,0.2856,0.2915,0.2924,0.2919,0.2967,0.3037,0.3051,0.3064,0.3117,0.3135,0.2923,0.2923,0.2923,0,0.258,0.2596,0.2608,0.2631,0.2651,0.267,0.2696,0.2718,0.2748,0.2775,0.2766,0.2846,0.285,0.2922,0.2937,0.2934,0.2969,0.2929,0.3048,0.3061,0.3073,0.3125,0.3143,0.2926,0.2926,0.2925,0.2925,0,0.2599,0.2619,0.2632,0.2666,0.2692,0.2718,0.2751,0.2785,0.2808,0.2834,0.2909,0.2929,0.2985,0.2989,0.2979,0.3071,0.3066,0.3049,0.3025,0.3094,0.3143,0.3161,0.2931,0.293,0.2929,0.2928,0,0,0.2588,0.2635,0.264,0.266,0.2712,0.2731,0.2791,0.2849,0.2899,0.294,0.3019,0.3061,0.3087,0.3107,0.3112,0.3158,0.3264,0.314,0.3142,0.3193,0.342,0.3323,0.3333,0.3272,0.3276,0.3279,0.342,0,0.2601,0.2639,0.2667,0.2712,0.2736,0.2783,0.2838,0.2897,0.2953,0.3033,0.3087,0.3156,0.313,0.3168,0.322,0.325,0.3314,0.3227,0.3345,0.3348,0.3255,0.3352,0.3067,0.316,0.3437,0.344,0.3442,0,0.2605,0.2633,0.2673,0.2737,0.2754,0.2791,0.2888,0.2942,0.3061,0.3112,0.3209,0.3254,0.3346,0.331,0.3432,0.338,0.3416,0.3431,0.3437,0.334,0.3286,0.3136,0.3183,0.3472,0.347,0.3468,0.3466,0,0.2576,0.2635,0.2664,0.2684,0.2763,0.2804,0.2859,0.2968,0.3037,0.3176,0.3253,0.3363,0.3448,0.3504,0.3544,0.3505,0.3669,0.3621,0.3578,0.3571,0.3347,0.3313,0.3734,0.3734,0.3733,0.3733,0.3733,0,0.257,0.2593,0.2652,0.2668,0.2726,0.279,0.2881,0.2955,0.3094,0.3189,0.3296,0.3397,0.3504,0.3604,0.3609,0.3654,0.3738,0.3613,0.3614,0.3357,0.3325,0.36,0.3582,0.3738,0.3737,0.3736,0.3735,0,0.2529,0.2567,0.2602,0.268,0.271,0.2752,0.2888,0.2954,0.309,0.3229,0.3283,0.3469,0.3585,0.3669,0.3779,0.3745,0.3778,0.3778,0.3462,0.3421,0.3618,0.3602,0.3746,0.3744,0.3743,0.3741,0.374,0,0.251,0.2521,0.2594,0.2619,0.2655,0.2737,0.2796,0.2938,0.3018,0.3251,0.331,0.35,0.3586,0.372,0.3701,0.3724,0.3794,0.3475,0.3339,0.364,0.3627,0.3613,0.36,0.3072,0.3065,0.306,0.3056,0,0.2475,0.2497,0.2526,0.2581,0.2632,0.2694,0.2793,0.2842,0.3015,0.313,0.3265,0.3353,0.3511,0.3415,0.3479,0.3441,0.3434,0.3365,0.38,0.3101,0.3012,0.2996,0.3004,0.3008,0.3013,0.3017,0.3019,0.3021,0.2442,0.2451,0.2491,0.2535,0.2589,0.2618,0.2627,0.2726,0.2815,0.2928,0.3097,0.3137,0.3204,0.3143,0.305,0.2986,0.3215,0.306,0.3074,0.3094,0.2978,0.289,0.2842,0.2846,0.2849,0.2852,0.2854,0,0.2405,0.2421,0.2447,0.2463,0.2464,0.2541,0.2597,0.256,0.2582,0.2723,0.2804,0.2618,0.2589,0.2649,0.2477,0.2471,0.2415,0.2368,0.2269,0.232,0.2365,0.2208,0.187,0.1867,0.1863,0.186,0,0,0.2384,0.2382,0.2386,0.2342,0.2347,0.2298,0.2299,0.2264,0.2315,0.2273,0.2294,0.2512,0.2601,0.222,0.2161,0.1986,0.2132,0.1905,0.2704,0.2642,0.2682,0.2784,0.2603,0,0,0,0,0]},{"header":{"parameterUnit":"m.s-1","parameterCategory":2,"la1":30.2991,"la2":30.254,"lo1":-89.0895,"lo2":-89.0444,"dy":0.0017,"dx":0.0017,"nx":28,"ny":28,"refTime":"2025-03-06T09:00:00:Z","depth":"2","parameterNumber":3,"parameterNumberName":"V-component_of_CURRENTS"},"data":[0,0,0,0,0,0,0,0,0,0,0,0,0,0,0,0,0,0,0,0,0,0,0,0,0,0,0,0,0,0,0,0,0,0,0,0,0,0,0,0,0,0,0,0,0,0,0,0,0,0,0,0,0,0,0,0,0,0,0.0114,0.0113,0,0.0075,0.0074,0.0074,0.0039,0.0039,0.0039,0.0039,-0.0017,-0.0018,-0.0019,0,0,0,0,0,0,0,0,0,0,0,0,0,0.0121,0.0121,0.0114,0.0113,0.0113,0.0075,0.0074,0.0073,0.004,0.0039,0.0039,0.0038,-0.0016,-0.0018,-0.0019,0,0,0,0,0,0,0,0,0,0,0,0,0,0.0103,0.0121,0.0114,0.0092,0.0089,0.0075,0.0074,0.0073,0.004,0.0039,0.0039,0.0038,-0.0016,-0.0018,-0.0019,-0.0021,0,0,-0.0025,-0.0026,0,0,0,0,0,0,0,0,0.0104,0.0102,0.0095,0.0093,0.0091,0.0062,0.0056,0.0041,0.004,0.0058,0.0039,0.0038,0.0009,0.0005,-0.0002,-0.0023,-0.0026,-0.0025,-0.0026,-0.0027,-0.0027,0,0,0,0,0,0,0,0.0105,0.0104,0.0097,0.0095,0.0092,0.0071,0.0068,0.0053,0.0036,0.0056,0.0054,0.0051,0.0007,-0.0,-0.0004,-0.0027,-0.0025,-0.0027,-0.0028,-0.0028,-0.0048,-0.0047,0,0,0,0,0,0,0.0114,0.0105,0.0099,0.0096,0.0097,0.0071,0.0068,0.0071,0.0036,0.0031,0.0051,0.0049,0.0003,-0.0002,-0.0006,0.0004,-0.0027,-0.0029,-0.003,-0.0048,-0.0048,-0.0047,0,0,0,0,0,0,0.0115,0.0114,0.01,0.01,0.0097,0.0072,0.0075,0.0071,0.0064,0.0033,0.0027,0.005,0.0002,-0.0003,-0.0015,0.0001,-0.0029,-0.0031,-0.0049,-0.0048,-0.0047,0.0015,0,0,0,0,0,0,0.0115,0.0115,0.0119,0.0101,0.0097,0.0101,0.0076,0.007,0.0064,0.0061,0.003,0.0024,0.0002,-0.0012,-0.0017,-0.0002,-0.0032,-0.005,-0.0049,-0.0048,0.0012,0.0017,0.0022,0,0,0,0,0,0.0116,0.0129,0.012,0.0119,0.0104,0.0102,0.0098,0.0078,0.0064,0.0069,0.0044,0.0025,-0.0009,-0.0013,-0.0019,-0.0004,-0.005,-0.0049,-0.0048,0.001,0.0016,0.0022,0,0,0,0,0,0,0.0133,0.0126,0.0116,0.0125,0.0117,0.0097,0.0097,0.0083,0.0068,0.0062,0.003,0.0023,0.0018,-0.0001,-0.0005,-0.0007,-0.0032,-0.0032,0.0013,0.0019,0.0025,0.0044,-0.0034,0,0,0,0,0,0.0139,0.0148,0.0135,0.0142,0.014,0.0119,0.0114,0.0102,0.0086,0.0078,0.0057,0.0034,0.0019,0.0013,-0.0006,-0.0005,-0.0027,0.0001,0.0006,0.001,0.0023,0.0003,0.0008,-0.0043,-0.0043,-0.0043,0,0,0.0146,0.0144,0.0148,0.0146,0.0136,0.0146,0.0115,0.0114,0.0125,0.0075,0.008,0.005,0.0022,0.002,0.0017,0.0007,0.0012,0.0012,0.0016,0.0026,0.0005,0.001,0.0014,-0.0042,-0.0043,-0.0043,0,0,0.0172,0.0165,0.0182,0.0183,0.0176,0.0164,0.0168,0.0153,0.0149,0.0147,0.0114,0.0096,0.0074,0.0059,0.0048,0.0072,0.0037,0.0064,0.0111,0.0091,0.0096,0.0099,0.0075,0.0076,0.007,0.007,0.0071,0,0.018,0.0204,0.0186,0.0206,0.0213,0.0179,0.0203,0.0195,0.0178,0.0182,0.0158,0.0127,0.0096,0.0102,0.0104,0.0085,0.0065,0.009,0.0099,0.0102,0.0104,0.0079,0.0079,0.0074,0.0073,0.0073,0.0073,0,0.0223,0.024,0.0251,0.0266,0.027,0.0284,0.0274,0.0277,0.0261,0.025,0.0249,0.0205,0.0189,0.0173,0.0143,0.0151,0.0127,0.0105,0.0086,0.0113,0.0084,0.0083,0.0078,0.0077,0.0076,0.0075,0,0,0.0247,0.0277,0.0281,0.0308,0.0306,0.0321,0.0336,0.0348,0.0373,0.0339,0.0368,0.0321,0.029,0.0276,0.0236,0.0215,0.0202,0.0171,0.0168,0.0152,0.0156,0.0117,0.0111,0.018,0.018,0.0181,0.0128,0,0.0286,0.0345,0.0344,0.0397,0.0428,0.0412,0.0437,0.044,0.0433,0.0449,0.0402,0.0406,0.0333,0.033,0.0295,0.023,0.0203,0.0219,0.0128,0.0126,0.0091,0.011,0.0133,0.0086,0.0127,0.0126,0.0126,0,0.033,0.0369,0.0431,0.0484,0.0496,0.0517,0.0558,0.0579,0.058,0.0578,0.056,0.0519,0.0484,0.0421,0.0322,0.0334,0.0252,0.0194,0.019,0.0133,0.0084,0.0065,0.0082,0.0124,0.0124,0.0124,0.0124,0,0.0371,0.043,0.0488,0.0504,0.0551,0.0579,0.0602,0.0616,0.0662,0.0665,0.0693,0.0626,0.0619,0.0503,0.0363,0.0346,0.0253,0.0213,0.0101,0.0097,0.009,0.0084,0.0148,0.0148,0.0148,0.0148,0.0148,0,0.0419,0.0466,0.0515,0.055,0.063,0.0638,0.0721,0.0731,0.0773,0.0849,0.0766,0.0806,0.064,0.0561,0.0409,0.0254,0.0284,0.0116,0.0085,0.011,0.0108,0.0119,0.0117,0.0146,0.0146,0.0147,0.0147,0,0.0456,0.0483,0.0561,0.0626,0.0652,0.0712,0.081,0.0876,0.0895,0.0993,0.1004,0.0952,0.0846,0.0662,0.0488,0.0334,0.0176,0.0113,0.0149,0.0122,0.0019,0.002,-0.0016,-0.0018,-0.0019,-0.002,-0.0021,0,0.048,0.0522,0.0619,0.0679,0.0713,0.0807,0.0881,0.0933,0.1019,0.1093,0.1153,0.1079,0.1044,0.0754,0.0478,0.021,0.0175,0.0046,0.0008,0.0032,0.0004,0.0008,0.0011,0.0022,0.0021,0.002,0.002,0,0.0532,0.0562,0.0631,0.0754,0.0843,0.096,0.1071,0.1161,0.1246,0.132,0.1396,0.1367,0.1098,0.0828,0.045,0.0265,0.0083,0.0025,0.0058,0.0055,0.0061,0.0036,0.0039,0.0016,0.0016,0.0016,0.0017,0.0017,0.0569,0.0629,0.0721,0.0841,0.0952,0.1104,0.1223,0.135,0.1495,0.1621,0.157,0.153,0.1208,0.0725,0.0396,0.0051,0.0067,-0.0064,-0.0059,-0.0055,-0.0046,-0.0043,-0.0107,-0.0107,-0.0107,-0.0107,-0.0107,0,0.0625,0.0695,0.0805,0.0956,0.1093,0.1145,0.1347,0.1469,0.1657,0.1732,0.1774,0.1454,0.1141,0.0772,0.0264,-0.0049,-0.0064,-0.0153,-0.01,-0.0093,-0.0088,-0.0078,-0.0149,-0.015,-0.0151,-0.0152,0,0,0.0658,0.0767,0.0826,0.1047,0.1164,0.1365,0.1496,0.1666,0.1766,0.1832,0.18,0.1709,0.1252,0.0873,0.0447,0.0155,0.0104,0.0093,0.016,0.028,0.0289,-0.0005,0.002,0,0,0,0,0]}],[{"header":{"parameterUnit":"m.s-1","parameterCategory":2,"la1":30.2991,"la2":30.254,"lo1":-89.0895,"lo2":-89.0444,"dy":0.0017,"dx":0.0017,"nx":28,"ny":28,"refTime":"2025-03-06T09:00:00:Z","depth":"4","parameterNumber":2,"parameterNumberName":"U-component_of_CURRENTS"},"data":[0,0,0,0,0,0,0,0,0,0,0,0,0,0,0,0,0,0,0,0,0,0,0,0,0,0,0,0,0,0,0,0,0,0,0,0,0,0,0,0,0,0,0,0,0,0,0,0,0,0,0,0,0,0,0,0,0,0,0.1649,0.165,0,0.1695,0.1696,0.1696,0.1741,0.1742,0.1743,0.1744,0.1796,0.1796,0.1797,0,0,0,0,0,0,0,0,0,0,0,0,0,0.1591,0.1591,0.1649,0.165,0.165,0.1695,0.1696,0.1696,0.1741,0.1742,0.1743,0.1744,0.1796,0.1796,0.1797,0,0,0,0,0,0,0,0,0,0,0,0,0,0.1622,0.1592,0.1649,0.168,0.1683,0.1695,0.1696,0.1696,0.1741,0.1742,0.1743,0.1744,0.1795,0.1796,0.1797,0.178,0,0,0.18,0.1801,0,0,0,0,0,0,0,0,0.1621,0.1624,0.1674,0.1678,0.1682,0.1716,0.1695,0.1725,0.1741,0.1717,0.1744,0.1745,0.177,0.1773,0.1776,0.1782,0.1785,0.18,0.1801,0.1801,0.1802,0,0,0,0,0,0,0,0.1618,0.1623,0.1665,0.1675,0.168,0.1689,0.1694,0.17,0.1735,0.1719,0.1723,0.1731,0.1772,0.1775,0.1778,0.1785,0.18,0.1801,0.1802,0.1802,0.1895,0.1897,0,0,0,0,0,0,0.1616,0.162,0.1664,0.1667,0.1656,0.1689,0.1695,0.1702,0.1735,0.1741,0.173,0.1733,0.1773,0.1777,0.178,0.1861,0.1801,0.1802,0.1803,0.1894,0.1896,0.1898,0,0,0,0,0,0,0.1614,0.1619,0.1662,0.1646,0.1653,0.1689,0.1696,0.1702,0.1743,0.1743,0.175,0.1769,0.1774,0.1778,0.1821,0.186,0.1803,0.1804,0.1891,0.1894,0.1897,0.196,0,0,0,0,0,0,0.1613,0.1618,0.164,0.1646,0.1654,0.1693,0.1695,0.1702,0.1745,0.175,0.1778,0.1782,0.1775,0.182,0.1822,0.186,0.1804,0.1889,0.1893,0.1896,0.1956,0.1965,0.1973,0,0,0,0,0,0.161,0.1626,0.164,0.1647,0.1676,0.1694,0.1699,0.1727,0.1746,0.1768,0.1793,0.1783,0.1844,0.1822,0.1824,0.1864,0.1887,0.1892,0.1896,0.1952,0.1963,0.1973,0,0,0,0,0,0,0.1613,0.1633,0.1648,0.1671,0.1695,0.1703,0.1731,0.1747,0.1783,0.1801,0.1801,0.1807,0.1858,0.1854,0.1829,0.1903,0.1867,0.1871,0.1909,0.1919,0.1928,0.1933,0.1805,0,0,0,0,0,0.1623,0.1644,0.1661,0.1685,0.17,0.1723,0.1742,0.1761,0.1784,0.1803,0.1823,0.1848,0.187,0.1891,0.1903,0.1941,0.1947,0.1971,0.198,0.1987,0.1994,0.2046,0.206,0.1912,0.1912,0.1912,0,0,0.1632,0.1647,0.1661,0.1689,0.1711,0.1734,0.1739,0.1777,0.1806,0.1802,0.186,0.1877,0.1886,0.193,0.1954,0.1937,0.2032,0.1992,0.1998,0.2002,0.2052,0.2066,0.2079,0.1915,0.1914,0.1914,0,0,0.1646,0.1675,0.1695,0.1717,0.1756,0.1768,0.1788,0.1819,0.185,0.1898,0.1906,0.1951,0.1985,0.2001,0.2011,0.2075,0.2073,0.2087,0.2139,0.2189,0.2202,0.2213,0.2236,0.2249,0.2095,0.2095,0.2096,0,0.1662,0.1682,0.1706,0.1729,0.1754,0.1788,0.1815,0.1845,0.189,0.1922,0.1931,0.2007,0.2017,0.2069,0.2097,0.2095,0.2117,0.2096,0.22,0.2211,0.2221,0.2243,0.2256,0.2099,0.2099,0.2098,0.2098,0,0.1676,0.1709,0.1726,0.1765,0.1797,0.1828,0.1866,0.1912,0.1957,0.1987,0.2064,0.2086,0.2134,0.2148,0.2144,0.2225,0.2214,0.2201,0.2172,0.224,0.2258,0.2271,0.2104,0.2103,0.2102,0.2101,0,0,0.1663,0.1723,0.1734,0.1758,0.1821,0.1839,0.1906,0.1964,0.2014,0.2075,0.2141,0.2195,0.2224,0.2239,0.2248,0.2295,0.2384,0.229,0.2291,0.2309,0.2492,0.2332,0.233,0.2399,0.2402,0.2404,0.2474,0,0.1671,0.1714,0.1749,0.18,0.1824,0.1883,0.1933,0.1997,0.2064,0.2136,0.219,0.2255,0.2253,0.2292,0.2342,0.2377,0.2422,0.2366,0.2427,0.2428,0.2275,0.2341,0.2412,0.2483,0.2486,0.2488,0.2489,0,0.1666,0.1698,0.1749,0.1812,0.1831,0.1873,0.1969,0.202,0.2128,0.2189,0.2277,0.2319,0.2409,0.2392,0.2498,0.2469,0.2492,0.251,0.2512,0.2349,0.2292,0.2402,0.2512,0.251,0.2508,0.2507,0.2506,0,0.1625,0.1693,0.1735,0.1759,0.1838,0.1886,0.1939,0.2045,0.2103,0.2238,0.2306,0.2403,0.2471,0.2528,0.2579,0.2557,0.2679,0.2645,0.2517,0.2506,0.2599,0.2586,0.2716,0.2716,0.2716,0.2716,0.2716,0,0.1597,0.1632,0.1724,0.1742,0.1798,0.1869,0.1947,0.2024,0.2144,0.2215,0.2334,0.2402,0.2517,0.2593,0.2616,0.2607,0.2715,0.2535,0.2519,0.2623,0.2612,0.2607,0.2594,0.2719,0.2718,0.2717,0.2717,0,0.1537,0.16,0.1648,0.1744,0.1779,0.1822,0.1942,0.1986,0.2129,0.2231,0.2283,0.2438,0.2536,0.2618,0.2713,0.2638,0.2653,0.262,0.2732,0.2719,0.2432,0.2421,0.2472,0.2467,0.2463,0.246,0.2457,0,0.1503,0.1526,0.1635,0.166,0.1709,0.1787,0.1828,0.1968,0.2023,0.2228,0.2257,0.2415,0.2499,0.2506,0.2603,0.2631,0.26,0.2574,0.249,0.2431,0.2411,0.2407,0.2402,0.245,0.2449,0.2448,0.2447,0,0.1433,0.1491,0.1528,0.1583,0.1634,0.1676,0.1757,0.1788,0.1946,0.2104,0.2184,0.2242,0.2345,0.2409,0.2454,0.2467,0.257,0.2529,0.2537,0.2458,0.2405,0.2388,0.2388,0.2432,0.2434,0.2436,0.2437,0,0.1382,0.1389,0.1442,0.1476,0.1534,0.1533,0.1594,0.1653,0.1732,0.1963,0.1989,0.2165,0.2322,0.2326,0.2371,0.2373,0.2326,0.2225,0.2247,0.2264,0.2163,0.2063,0.1981,0,0,0,0,0,0.1317,0.1301,0.1321,0.134,0.139,0.1418,0.1522,0.1588,0.1761,0.1765,0.1873,0.1963,0.204,0.2133,0.2093,0.2267,0.2324,0.2207,0.2215,0.2352,0.2369,0.2269,0,0,0,0,0,0,0.1265,0.1281,0.1276,0.1217,0.1203,0.1232,0.1288,0.1401,0.1417,0.1615,0.1676,0.183,0.1942,0.2048,0.2053,0.2079,0.2038,0.2324,0.2318,0.2343,0.2358,0.2371,0.2274,0,0,0,0,0]},{"header":{"parameterUnit":"m.s-1","parameterCategory":2,"la1":30.2991,"la2":30.254,"lo1":-89.0895,"lo2":-89.0444,"dy":0.0017,"dx":0.0017,"nx":28,"ny":28,"refTime":"2025-03-06T09:00:00:Z","depth":"4","parameterNumber":3,"parameterNumberName":"V-component_of_CURRENTS"},"data":[0,0,0,0,0,0,0,0,0,0,0,0,0,0,0,0,0,0,0,0,0,0,0,0,0,0,0,0,0,0,0,0,0,0,0,0,0,0,0,0,0,0,0,0,0,0,0,0,0,0,0,0,0,0,0,0,0,0,0.0106,0.0106,0,0.0083,0.0083,0.0083,0.0062,0.0062,0.0062,0.0062,0.0027,0.0026,0.0025,0,0,0,0,0,0,0,0,0,0,0,0,0,0.0108,0.0108,0.0106,0.0106,0.0106,0.0083,0.0083,0.0083,0.0062,0.0062,0.0062,0.0062,0.0027,0.0026,0.0025,0,0,0,0,0,0,0,0,0,0,0,0,0,0.0098,0.0108,0.0106,0.0093,0.0092,0.0083,0.0083,0.0082,0.0062,0.0062,0.0062,0.0062,0.0027,0.0026,0.0025,0.0024,0,0,0.0022,0.0021,0,0,0,0,0,0,0,0,0.0099,0.0098,0.0095,0.0094,0.0092,0.0076,0.0071,0.0063,0.0063,0.0073,0.0062,0.0061,0.0042,0.004,0.0036,0.0023,0.0021,0.0021,0.0021,0.002,0.002,0,0,0,0,0,0,0,0.0099,0.0099,0.0097,0.0095,0.0093,0.008,0.0078,0.0069,0.0059,0.0072,0.0071,0.0069,0.0041,0.0037,0.0035,0.0021,0.0022,0.0021,0.002,0.0019,0.001,0.001,0,0,0,0,0,0,0.0105,0.01,0.0098,0.0096,0.0095,0.008,0.0078,0.0081,0.006,0.0056,0.0069,0.0068,0.0039,0.0036,0.0034,0.0043,0.002,0.0019,0.0019,0.001,0.001,0.0011,0,0,0,0,0,0,0.0105,0.0105,0.0098,0.0097,0.0095,0.0081,0.0084,0.0081,0.0078,0.0057,0.0054,0.0069,0.0039,0.0035,0.0029,0.0041,0.0019,0.0018,0.0009,0.001,0.001,0.0054,0,0,0,0,0,0,0.0105,0.0105,0.0109,0.0098,0.0096,0.0101,0.0084,0.0081,0.0077,0.0076,0.0057,0.0053,0.0038,0.0031,0.0028,0.0039,0.0017,0.0009,0.0009,0.001,0.0052,0.0056,0.0059,0,0,0,0,0,0.0105,0.0115,0.011,0.0109,0.0102,0.0101,0.0099,0.0087,0.0078,0.0082,0.0067,0.0053,0.0034,0.0031,0.0027,0.0038,0.0008,0.0009,0.001,0.005,0.0055,0.0059,0,0,0,0,0,0,0.0116,0.0114,0.0107,0.0115,0.0111,0.0098,0.01,0.0091,0.0082,0.0079,0.0058,0.0054,0.0052,0.0039,0.0036,0.0037,0.0019,0.002,0.0051,0.0055,0.0059,0.0071,0.0016,0,0,0,0,0,0.0121,0.0129,0.0121,0.0127,0.0127,0.0114,0.0111,0.0104,0.0094,0.009,0.0077,0.0063,0.0054,0.005,0.0039,0.004,0.0015,0.0045,0.0048,0.0052,0.0059,0.0027,0.0028,0.0014,0.0014,0.0014,0,0,0.0126,0.0126,0.0129,0.013,0.0124,0.0133,0.0112,0.0112,0.0122,0.0088,0.0095,0.0074,0.0056,0.0058,0.0056,0.0048,0.0041,0.0053,0.0056,0.0062,0.0028,0.0029,0.003,0.0014,0.0014,0.0014,0,0,0.0144,0.0141,0.0155,0.0156,0.0154,0.0147,0.015,0.0141,0.014,0.0142,0.0119,0.0107,0.0096,0.0084,0.0077,0.0095,0.006,0.0091,0.0122,0.0091,0.0091,0.0092,0.0056,0.0053,0.0095,0.0095,0.0095,0,0.015,0.0167,0.0158,0.0172,0.018,0.0157,0.0176,0.0172,0.0163,0.0165,0.0151,0.0129,0.0111,0.0111,0.0116,0.0104,0.0077,0.0107,0.0095,0.0095,0.0095,0.0058,0.0054,0.0097,0.0097,0.0097,0.0097,0,0.0179,0.0194,0.0202,0.0216,0.0222,0.0233,0.0229,0.0232,0.0224,0.0216,0.0213,0.0184,0.0171,0.0161,0.0145,0.0139,0.0117,0.0102,0.0085,0.0099,0.0059,0.0054,0.01,0.01,0.0099,0.0098,0,0,0.0192,0.0219,0.0223,0.0244,0.0248,0.026,0.0274,0.0284,0.0299,0.0277,0.0289,0.0263,0.0239,0.0229,0.0201,0.0174,0.0143,0.0142,0.0139,0.0107,0.0067,0.005,0.0043,0.0123,0.0123,0.0122,0.0038,0,0.0219,0.0263,0.0266,0.0308,0.0331,0.0324,0.0345,0.0348,0.0344,0.0348,0.0311,0.031,0.0268,0.0264,0.0228,0.0169,0.0133,0.0167,0.0057,0.0054,0.0038,0.0038,0.0121,0.0034,0.0033,0.0032,0.0031,0,0.0247,0.0277,0.0325,0.0367,0.0377,0.0397,0.0429,0.0446,0.0439,0.0437,0.0417,0.0381,0.0344,0.0305,0.0204,0.0227,0.0153,0.0099,0.0094,0.0062,0.0029,0.0017,0.0022,0.0023,0.0023,0.0024,0.0025,0,0.0269,0.0318,0.0362,0.0376,0.0416,0.044,0.0461,0.0471,0.0505,0.0494,0.0505,0.0443,0.0423,0.0323,0.0207,0.0205,0.0086,0.0067,-0.0021,-0.0024,-0.0003,-0.0002,-0.001,-0.001,-0.0009,-0.0009,-0.0009,0,0.0297,0.0333,0.038,0.0406,0.0468,0.0481,0.0543,0.0551,0.0578,0.0621,0.0555,0.056,0.0426,0.0341,0.0224,0.0088,0.0095,-0.0015,-0.0044,0.0017,0.002,-0.0007,-0.0005,-0.0012,-0.0012,-0.0011,-0.0011,0,0.0312,0.0339,0.0399,0.0457,0.0481,0.0528,0.061,0.0657,0.0667,0.0719,0.072,0.0651,0.0537,0.0389,0.0225,0.0121,-0.0015,-0.0068,0.0008,-0.0016,-0.011,-0.0106,-0.0172,-0.0173,-0.0174,-0.0175,-0.0176,0,0.0323,0.0354,0.044,0.0489,0.0521,0.0598,0.0657,0.0701,0.076,0.0776,0.0804,0.0707,0.0639,0.0398,0.0228,-0.0005,-0.0041,-0.0119,-0.0116,-0.0104,-0.0126,-0.012,-0.0114,-0.0178,-0.0178,-0.0178,-0.0179,0,0.0346,0.0377,0.0432,0.0534,0.0609,0.0703,0.079,0.0837,0.089,0.0896,0.0878,0.0745,0.0611,0.0408,0.0223,0.0055,-0.0072,-0.0131,-0.013,-0.0128,-0.0112,-0.0131,-0.0124,-0.0182,-0.0182,-0.0181,-0.0181,0,0.0366,0.041,0.0487,0.058,0.068,0.0783,0.0825,0.0894,0.0944,0.0958,0.0945,0.0789,0.0701,0.0438,0.027,0.01,0.0052,-0.0009,-0.0015,-0.0013,0.0052,0.0097,0.0068,0,0,0,0,0,0.0387,0.0444,0.053,0.0642,0.0744,0.0807,0.0909,0.0946,0.0989,0.0989,0.0974,0.0847,0.0591,0.0475,0.0303,0.0235,0.0012,0.0025,-0.0063,-0.0203,-0.0198,-0.0151,0,0,0,0,0,0,0.0404,0.0483,0.0532,0.0678,0.0762,0.0885,0.0951,0.0981,0.0984,0.0988,0.0858,0.0794,0.0546,0.0694,0.0298,0.0245,0.0161,-0.0093,-0.0097,-0.0205,-0.0201,-0.0198,-0.0147,0,0,0,0,0]}]]